Wind_Speed
2 0 2 5 6 7 7 7 6 4 5 3 3 3 4 5 5 4 2 5 1 4 5 6 9 9 10 9 12 16 24 25 23 25 26 26 30 31 33 35 35 37 34 31 32 32 31 31 30 28 27 25 26 25 23 22 20 18 16 14 14 14 14 13 14 15 16 17 18 18 19 20 20 20 21 21 22 23 24 25 26 27 27 28 29 29
2 1 5 7 8 6 5 5 4 4 4 2 2 3 4 4 5 4 1 5 2 4 2 6 12 10 8 7 11 17 20 17 17 20 22 25 28 30 32 33 33 32 30 30 32 31 30 29 28 27 26 25 26 25 24 23 22 20 19 19 18 18 18 18 19 19 20 20 21 22 22 23 23 23 23 24 24 24 25 25 26 27 27 28 28 29
2 4 7 6 4 3 4 4 5 3 3 3 2 1 3 3 3 4 2 5 4 4 2 6 12 8 6 7 11 17 15 14 18 21 22 25 27 29 31 31 31 30 30 30 30 28 27 27 25 24 23 23 22 22 22 22 22 22 21 21 20 20 20 20 21 21 21 21 22 23 24 25 26 26 26 26 26 27 28 28 28 29 29 29 30 29
2 5 6 3 3 5 4 4 5 3 1 2 3 1 3 3 1 2 3 3 4 3 5 9 11 5 5 7 10 15 15 17 21 24 26 27 27 27 28 30 31 31 30 30 28 27 27 27 25 23 21 20 19 18 19 19 19 19 19 18 17 17 17 16 16 16 16 16 17 19 20 22 24 25 26 26 26 26 27 28 28 28 29 30 32 32
5 5 2 2 3 4 2 2 3 3 2 3 4 5 4 3 2 3 2 2 3 3 5 9 8 3 4 6 6 9 13 16 18 22 25 26 26 25 26 29 31 31 31 30 29 28 27 27 25 23 20 18 18 16 16 16 15 15 14 14 14 14 14 14 13 13 13 14 15 16 18 20 21 23 24 25 27 27 27 27 27 26 27 29 31 32
6 4 1 1 4 4 3 1 2 5 2 4 4 6 6 4 3 2 2 3 4 1 3 4 3 2 3 5 4 5 7 10 11 16 19 21 24 26 28 30 29 30 30 29 28 27 25 25 24 24 22 20 18 17 16 15 13 13 13 13 14 14 14 13 13 14 15 16 18 20 21 23 24 25 25 25 27 29 29 28 28 27 26 27 29 30
3 3 3 3 4 5 3 2 4 5 4 2 3 4 6 6 4 2 1 3 2 2 2 2 3 3 1 3 3 3 4 6 7 11 15 19 24 28 30 31 30 30 29 28 26 24 23 23 24 24 23 21 19 17 14 12 12 12 13 14 14 15 15 16 17 18 19 21 22 23 24 25 26 28 28 28 28 29 30 30 29 28 27 26 27 29
2 3 5 4 5 4 2 2 3 6 6 2 3 4 5 3 1 3 4 3 2 2 2 1 3 4 2 2 1 1 5 6 6 8 13 19 24 27 29 30 30 29 27 25 23 22 23 23 23 23 22 20 17 15 13 13 14 14 15 17 18 19 20 21 23 24 26 27 27 27 27 28 28 30 31 32 32 31 31 31 30 30 29 26 26 28
1 1 2 2 4 2 2 3 4 5 2 4 4 3 2 1 2 3 4 2 1 1 3 3 3 4 2 4 3 1 5 5 6 6 10 16 21 25 29 30 29 27 24 22 21 21 22 21 21 21 19 17 15 15 16 17 17 18 20 20 22 25 26 28 30 31 32 32 31 31 31 31 32 32 33 34 34 34 34 34 33 31 30 29 27 26
0 0 1 2 1 2 4 3 4 5 1 2 5 3 3 3 3 3 4 3 2 1 3 4 2 4 2 4 3 2 3 4 5 5 7 14 20 23 28 30 27 24 21 20 19 20 20 19 19 17 16 16 17 18 18 19 21 23 25 26 28 30 32 34 34 35 35 34 33 32 32 33 34 34 34 34 35 35 35 36 36 34 33 32 30 28
2 1 0 2 1 3 2 1 2 4 2 2 4 3 4 4 4 3 2 3 3 1 5 4 1 5 3 3 3 1 1 4 6 5 6 12 18 22 27 28 24 20 19 18 18 18 17 17 17 17 17 18 19 19 20 22 25 26 29 31 32 34 35 35 35 35 34 33 31 31 31 32 33 33 34 35 35 35 35 36 36 36 35 33 32 30
4 2 0 1 2 1 1 1 0 0 2 3 3 3 3 3 3 3 4 3 3 3 5 3 1 6 3 1 1 2 3 4 7 5 5 9 14 20 25 26 21 17 17 18 19 19 19 19 21 21 22 22 23 24 25 28 30 31 33 34 35 36 36 35 35 34 33 32 31 31 31 31 32 32 33 34 35 35 35 36 36 36 36 35 32 30
3 1 2 3 1 1 2 1 2 4 5 4 3 3 3 3 3 2 3 1 2 4 1 1 2 5 4 2 4 5 6 8 11 10 9 11 14 18 23 24 20 15 16 19 20 21 23 24 25 25 26 27 28 30 31 32 34 35 36 36 36 35 35 35 34 34 33 32 32 32 32 33 33 34 35 36 37 37 37 37 36 35 36 36 33 31
4 4 4 3 1 3 3 1 2 2 3 3 1 3 2 2 2 3 3 1 3 2 1 1 3 3 3 3 4 6 7 11 15 15 15 16 16 17 21 23 19 15 16 18 19 22 25 25 25 25 27 29 31 33 34 35 36 36 36 36 34 34 34 35 34 34 33 33 34 34 34 35 35 36 37 38 38 38 38 36 33 31 32 34 34 33
1 4 3 1 1 3 2 1 2 1 1 2 2 4 2 3 3 3 4 2 3 2 2 3 2 2 4 3 3 6 10 13 14 14 16 17 15 16 20 23 20 15 15 18 19 22 24 24 24 25 28 31 33 34 35 36 36 35 35 35 35 36 37 37 36 34 34 36 36 35 35 35 36 37 38 38 38 37 36 34 31 30 31 33 34 35
0 4 4 2 3 1 2 1 1 3 1 1 2 3 1 3 4 1 3 4 3 1 3 2 2 1 3 4 3 6 10 13 13 12 15 15 14 17 22 26 22 15 15 18 20 22 23 22 23 26 30 32 33 34 35 36 35 33 34 35 38 40 40 39 38 36 38 38 37 35 35 37 38 39 40 40 39 38 35 33 33 34 36 37 38 39
1 4 5 3 2 1 2 2 0 1 0 0 1 0 2 3 5 3 1 1 3 1 2 1 4 2 3 3 1 4 6 9 11 12 15 15 16 19 23 26 20 13 14 18 20 21 21 21 23 28 31 32 32 32 33 35 34 31 33 37 41 42 41 40 39 40 40 38 36 37 38 40 41 41 41 41 40 37 34 35 36 37 40 41 43 45
1 4 5 1 0 1 1 1 2 2 2 2 0 3 2 1 4 4 0 3 4 1 3 1 4 4 4 3 1 5 7 8 9 11 14 16 15 17 22 23 15 9 13 18 19 19 19 21 26 30 31 30 29 29 33 36 33 30 34 39 42 43 41 41 41 42 40 37 38 41 42 42 42 42 41 38 35 33 34 37 38 39 41 43 45 46
2 3 6 1 2 3 3 2 3 3 1 2 2 2 2 1 0 1 1 0 1 2 3 3 1 4 3 2 2 5 7 7 8 9 10 13 13 15 20 20 11 7 14 19 18 18 20 23 29 31 28 27 26 30 36 36 32 33 37 40 41 41 40 41 42 40 37 37 40 43 43 44 43 41 38 34 32 33 35 39 42 43 44 44 44 45
1 0 5 3 2 3 4 3 2 4 3 3 2 2 2 3 3 1 1 2 1 2 2 2 1 1 1 1 3 5 5 6 8 7 8 11 10 14 20 17 9 10 16 19 18 19 21 25 30 28 24 24 28 34 38 36 34 37 41 42 42 42 42 43 41 38 37 40 43 44 44 44 41 36 33 32 33 37 40 44 46 46 46 46 45 44
2 1 3 5 3 3 2 2 0 1 3 3 3 3 3 1 0 0 0 1 1 2 2 1 2 1 1 3 5 6 4 5 6 6 7 9 9 14 20 15 9 13 17 19 20 20 23 28 29 23 22 27 33 38 39 36 37 40 41 42 42 42 43 42 38 36 39 43 45 44 45 44 39 34 34 37 39 42 44 45 46 46 46 46 45 41
1 1 2 4 4 2 3 3 1 2 1 1 1 2 1 2 1 1 2 2 1 1 3 2 2 2 2 3 4 4 3 5 8 8 9 10 9 16 20 13 9 14 17 19 21 22 26 29 26 23 27 33 38 41 40 37 39 40 40 40 40 42 42 39 36 39 43 45 45 45 45 42 38 38 41 44 44 44 45 46 46 45 45 43 40 35
1 2 0 4 4 4 6 3 1 2 2 4 3 2 1 1 3 3 2 3 2 1 1 1 1 2 1 3 6 6 4 5 9 10 11 12 11 17 20 13 10 15 18 20 22 25 29 28 25 28 34 38 41 41 39 39 40 40 40 40 41 43 41 37 39 43 44 45 45 45 44 40 40 43 46 46 46 46 46 46 46 44 42 39 35 32
2 2 1 4 4 3 5 4 2 2 4 4 3 3 2 2 1 4 4 2 1 2 1 1 2 3 2 4 7 7 6 6 8 12 15 14 14 20 20 13 12 17 19 22 25 28 29 27 29 34 37 40 42 41 39 38 39 39 39 39 42 43 40 38 43 45 44 46 46 46 45 43 45 47 48 48 48 47 46 46 45 42 38 36 35 35
3 0 2 3 4 5 5 5 5 4 4 3 2 4 3 3 3 1 1 2 1 1 2 2 3 3 3 4 5 6 8 9 10 13 16 15 16 21 19 13 15 18 22 26 28 29 29 29 32 35 36 39 41 38 37 38 39 40 40 42 44 44 43 44 45 44 46 48 48 47 46 46 48 50 49 49 48 46 45 44 41 37 36 37 41 44
1 2 2 2 0 2 3 3 3 3 2 2 2 6 6 5 5 1 0 3 0 2 3 2 3 2 3 2 5 7 8 9 9 13 16 16 20 22 17 14 17 20 25 27 26 27 27 29 31 33 36 39 38 36 37 39 41 42 42 44 45 43 44 45 43 43 47 49 47 47 47 48 50 50 49 48 48 46 43 39 36 36 40 44 47 49
1 1 2 4 5 4 4 4 4 2 1 2 3 7 7 5 4 3 3 2 2 0 3 1 2 2 2 1 6 7 8 8 9 15 19 21 24 21 14 14 17 21 25 25 25 28 29 30 34 37 40 40 38 37 39 40 42 42 43 45 43 41 43 42 41 45 49 49 48 49 49 50 50 48 46 46 46 43 38 38 40 43 46 47 47 48
3 3 3 2 2 3 3 2 2 3 4 3 2 6 7 7 6 7 4 0 2 3 3 3 1 4 2 1 5 7 8 8 10 16 20 23 24 18 13 16 20 24 26 25 27 30 31 33 38 41 42 40 38 39 41 41 42 42 43 43 42 43 43 41 42 48 50 49 50 50 50 50 47 44 44 45 45 44 42 46 50 50 49 49 48 48
5 1 2 1 3 5 3 3 5 8 6 4 5 5 6 8 8 7 3 0 3 2 3 2 4 4 2 2 5 7 10 10 13 17 21 24 21 14 15 19 22 25 26 25 29 32 32 35 39 41 40 38 38 40 42 42 42 42 42 41 43 44 43 42 46 49 49 49 50 50 49 48 44 43 46 47 48 50 51 52 53 51 51 50 48 47
3 0 2 2 3 6 6 5 5 8 6 5 7 6 5 5 6 5 1 2 2 2 3 1 5 5 0 2 5 10 14 15 17 20 23 23 18 13 16 20 23 26 26 28 33 34 33 36 38 38 38 37 38 41 41 42 42 41 39 40 44 45 44 45 48 48 49 49 49 49 48 45 44 46 49 50 51 53 53 52 52 51 50 49 47 46
3 2 1 3 3 3 4 5 5 6 7 6 6 6 5 4 5 4 3 3 3 2 2 3 5 4 1 6 10 14 16 16 16 19 23 21 15 14 18 22 25 27 28 32 35 34 33 36 37 36 35 35 38 40 41 43 43 40 39 41 44 45 45 46 47 48 49 49 48 48 45 43 46 50 51 52 53 53 52 52 51 50 49 48 48 46
4 3 3 4 3 2 1 3 3 3 5 5 6 7 6 4 4 3 3 1 1 3 4 5 5 3 4 11 13 12 14 16 15 19 23 18 13 16 20 24 28 30 32 34 35 33 34 36 36 35 35 36 39 40 41 43 43 41 40 42 44 45 46 47 46 48 49 48 47 46 44 45 50 53 53 53 53 52 52 51 50 49 49 48 47 46
2 2 3 4 2 2 2 2 2 1 3 3 4 5 4 1 3 5 4 2 1 1 2 4 4 3 7 12 10 9 13 14 14 21 23 15 13 18 22 27 32 33 33 34 33 33 35 37 36 34 35 38 40 41 42 42 41 40 41 43 46 47 47 47 47 48 48 47 45 44 45 49 53 53 53 53 52 51 51 50 50 49 48 47 46 45
3 4 2 2 2 3 5 2 2 3 2 4 1 3 4 2 4 8 6 2 1 2 1 2 4 6 9 10 9 12 14 14 18 26 20 10 16 24 27 32 34 32 33 33 32 33 35 36 36 35 36 38 40 42 42 41 40 40 41 44 47 48 47 48 48 48 47 45 43 43 47 52 54 53 52 52 51 50 50 50 49 48 46 45 45 45
4 4 1 1 2 2 4 5 4 2 3 4 3 5 6 1 3 8 5 2 2 4 4 5 6 8 11 12 13 17 18 19 26 24 12 8 21 29 32 34 32 30 33 32 31 33 35 35 35 36 37 39 40 42 42 41 41 41 43 45 46 47 47 48 48 47 45 43 43 46 50 53 53 52 51 51 50 49 49 48 47 46 45 44 44 44
2 2 1 1 2 1 3 4 2 3 2 1 1 7 8 4 4 8 4 2 2 4 4 5 8 9 13 15 16 19 22 26 25 13 4 10 24 29 29 29 29 31 31 29 30 34 35 34 34 35 37 40 41 41 40 40 40 41 44 45 45 46 47 47 47 46 44 43 46 50 52 52 51 51 50 50 49 48 47 45 44 44 43 44 45 44
4 3 2 2 1 1 1 2 3 2 4 3 1 5 6 3 4 7 3 1 2 4 5 7 8 11 15 15 18 23 27 25 15 2 4 18 26 26 27 28 29 29 27 26 31 35 34 32 32 34 37 40 40 39 38 39 39 41 44 45 45 45 46 47 46 45 44 46 50 52 51 50 50 50 49 48 47 46 45 43 43 43 43 44 46 46
7 4 3 2 2 2 2 2 3 4 3 3 1 3 8 8 7 5 3 1 3 7 9 9 9 13 17 17 20 25 25 18 7 1 11 25 28 28 31 31 28 25 24 29 34 35 32 31 32 35 38 40 39 37 37 37 39 41 43 43 43 45 46 46 45 44 47 51 52 51 49 48 48 47 47 46 45 44 43 42 43 43 43 44 46 46
9 5 4 4 3 2 3 1 1 2 3 3 2 7 13 13 8 3 1 1 2 9 12 12 13 16 16 17 21 21 16 10 7 11 22 29 30 31 34 33 28 25 28 33 35 32 30 30 33 38 40 40 39 38 36 38 40 41 42 42 43 44 45 44 44 46 50 52 51 49 48 48 46 45 44 43 42 41 41 42 43 44 43 44 44 45
7 5 4 5 3 1 1 0 2 3 2 2 2 10 16 14 6 3 3 4 4 11 15 15 17 18 16 17 18 14 7 6 12 23 31 33 31 33 33 30 27 29 34 36 34 30 29 31 35 40 41 40 40 39 39 41 42 41 41 42 42 43 43 43 45 48 51 51 50 49 48 46 45 43 41 40 39 40 41 42 44 44 44 44 44 44
4 3 3 4 2 2 1 1 4 3 2 1 7 12 15 11 3 2 3 6 9 17 19 18 18 16 15 18 16 12 12 15 20 28 32 31 32 34 31 26 27 31 34 34 31 30 32 34 37 39 39 39 40 40 41 43 43 42 42 42 43 43 43 44 47 50 51 50 49 48 47 46 44 41 39 38 38 39 41 42 43 44 44 44 43 43
2 3 3 2 2 2 1 1 4 3 1 5 12 11 9 6 2 2 6 11 17 21 20 17 16 15 16 19 18 17 22 25 25 27 28 29 32 33 30 28 31 34 34 32 30 31 35 38 40 39 39 38 38 39 41 41 42 42 42 43 44 45 46 48 50 51 51 49 48 47 46 45 43 40 38 37 38 40 41 42 42 42 42 42 42 41
1 1 3 2 1 2 2 2 3 3 2 7 10 6 4 3 3 7 12 15 17 17 16 16 15 15 18 21 22 24 27 27 25 26 27 29 31 31 30 32 34 35 33 32 34 35 37 40 40 40 39 39 39 39 39 39 40 40 41 42 44 46 47 48 50 50 50 49 48 46 45 43 41 39 37 37 38 40 42 42 42 41 42 41 40 40
1 2 1 3 1 2 1 1 1 1 3 7 6 1 0 2 6 9 12 14 14 14 14 16 16 16 18 22 25 26 26 25 25 26 28 30 31 31 33 34 34 33 32 33 36 38 39 39 40 40 40 39 39 39 38 38 39 40 41 43 45 47 48 49 49 50 50 49 47 45 44 42 40 38 37 38 39 40 41 41 41 41 41 40 39 40
1 2 2 3 2 2 4 6 2 3 7 8 4 1 2 5 8 10 11 13 13 14 15 17 17 19 22 24 25 25 24 24 25 26 28 30 32 33 34 34 33 33 33 34 37 38 38 38 38 39 40 39 39 39 38 37 37 39 41 43 45 46 47 49 50 50 50 48 46 44 43 42 40 38 38 38 39 40 40 41 41 41 41 40 39 40
1 3 1 2 3 5 7 6 4 7 11 8 3 4 7 9 10 12 13 13 13 15 17 18 20 24 26 25 24 24 24 25 25 26 29 31 33 34 34 34 34 33 34 36 37 38 38 38 39 39 40 40 39 38 38 38 37 38 41 43 44 45 46 48 49 50 49 47 45 43 42 41 40 39 38 38 38 39 40 40 40 40 40 39 39 39
2 5 2 1 2 4 3 1 4 11 16 11 4 6 12 15 17 17 16 15 15 17 19 21 24 28 27 24 23 24 24 23 25 29 32 33 34 34 34 34 34 35 35 36 37 37 37 38 39 40 41 41 40 39 39 39 38 39 41 43 44 45 46 47 48 50 49 46 44 43 41 40 40 40 39 39 39 39 40 40 39 39 39 38 38 39
2 4 3 1 1 3 5 5 9 17 18 9 5 12 19 21 20 19 16 16 17 19 22 25 27 28 26 23 21 21 21 23 26 29 32 33 33 33 33 33 34 35 36 36 36 36 37 38 39 39 40 41 41 40 40 40 40 41 41 42 43 44 46 47 48 49 48 45 43 42 40 39 40 40 40 40 39 39 39 40 40 38 36 36 36 36
2 4 2 1 3 5 6 7 12 15 10 3 7 18 22 20 19 17 16 17 19 22 25 27 27 25 23 23 21 20 21 24 26 28 30 31 32 33 33 34 35 36 36 37 36 36 37 37 38 39 39 39 40 40 40 41 41 42 41 42 42 44 45 47 47 48 47 44 42 41 40 39 39 39 39 40 40 39 38 37 37 36 34 33 33 31
1 2 0 1 3 4 3 5 9 8 6 8 16 22 20 18 17 15 16 18 21 24 27 27 26 24 22 21 21 20 22 24 26 27 29 30 31 32 33 34 36 36 37 37 37 37 36 36 37 38 38 39 39 40 41 42 42 42 41 41 42 43 44 46 47 47 46 44 42 40 39 39 39 39 39 39 40 41 40 38 36 33 31 32 32 29
2 2 2 1 3 6 9 11 12 9 11 17 21 20 18 18 16 15 17 20 23 25 26 26 25 24 22 20 20 20 21 23 25 27 28 29 30 31 32 33 35 36 37 37 37 37 37 37 37 37 38 38 39 39 41 42 42 42 41 41 41 42 43 43 45 46 46 43 41 40 38 38 39 38 38 38 39 41 42 43 41 36 33 32 32 30
Wind_Direction
107 141 237 220 221 221 216 197 185 173 160 168 184 206 247 246 272 275 268 310 6 97 36 58 70 38 22 17 10 36 60 63 64 72 72 74 76 75 78 77 76 75 71 67 63 59 55 50 46 45 46 47 45 42 39 38 37 32 28 23 19 11 1 355 351 348 345 341 339 338 336 335 333 330 327 326 325 321 319 317 313 310 306 303 302 301
69 215 239 231 227 219 205 184 143 117 133 136 193 234 274 237 257 276 269 314 325 105 60 78 74 43 28 28 20 42 57 50 56 72 74 76 77 76 77 76 77 75 70 65 59 55 52 46 41 37 39 41 37 34 32 32 31 26 21 18 14 7 2 1 358 355 352 348 346 343 341 338 335 334 331 330 331 330 329 328 325 321 317 314 311 310
3 249 263 260 224 136 88 111 118 110 130 133 148 199 278 258 275 302 331 329 350 90 114 88 80 54 26 39 35 41 55 58 65 78 80 79 80 77 76 75 75 73 68 62 55 51 45 38 33 32 38 43 39 35 35 36 33 28 26 24 20 16 14 13 8 4 1 357 353 348 344 341 338 336 334 331 329 328 327 327 327 326 323 320 318 315
295 250 274 279 152 118 71 66 101 90 64 170 169 175 257 267 292 285 304 330 359 63 126 108 90 67 18 39 41 39 57 71 74 82 82 79 80 79 79 75 70 67 62 55 47 41 34 26 26 30 38 48 54 50 45 43 37 33 32 27 23 20 17 16 10 5 1 356 352 347 343 340 337 336 336 333 330 327 325 323 323 323 322 321 319 317
245 248 281 18 77 117 125 44 107 151 300 274 201 193 226 249 210 214 276 322 15 44 127 117 89 53 15 35 36 31 57 72 76 83 81 79 80 79 78 73 66 60 54 49 43 36 31 30 34 40 48 61 71 64 49 46 42 35 31 25 19 14 10 8 3 356 350 343 338 333 329 327 327 329 329 328 326 324 323 322 320 319 317 316 314 314
265 280 313 55 50 67 124 245 215 175 234 307 236 205 196 179 160 161 344 23 58 52 176 137 86 9 8 37 32 6 48 64 66 75 78 78 73 67 68 66 59 53 49 46 42 36 37 42 46 52 60 70 72 59 46 43 40 31 24 17 11 7 3 359 355 348 340 335 333 330 327 327 326 325 324 323 320 318 317 316 315 315 314 312 310 308
269 348 23 112 95 69 77 272 242 159 131 309 260 183 149 132 122 121 81 63 102 216 216 147 147 152 63 40 24 3 60 62 51 60 62 62 63 62 62 57 49 46 44 41 39 41 46 49 51 53 57 61 56 47 41 36 28 21 14 8 3 359 355 350 348 343 337 334 332 329 327 325 323 320 318 317 314 312 312 310 308 309 309 311 310 307
223 359 20 63 73 66 48 292 229 135 121 231 233 139 122 114 146 162 145 152 207 235 322 350 132 130 128 145 179 30 79 68 50 46 43 52 62 62 56 49 46 44 40 38 44 50 51 49 48 48 48 46 43 36 26 18 12 5 359 356 352 349 345 344 342 339 338 336 332 327 322 319 317 315 313 312 312 311 311 309 307 306 305 306 308 307
206 353 359 73 53 33 250 242 181 131 118 239 206 140 109 125 185 163 145 168 233 22 304 284 134 115 121 163 184 64 89 90 72 50 38 54 63 58 49 43 43 43 41 45 52 53 50 46 43 40 38 34 28 20 12 4 358 353 348 344 343 342 340 339 337 335 336 335 332 328 324 320 318 315 313 313 313 312 312 310 309 308 306 304 303 305
29 299 283 122 102 250 248 247 174 154 250 219 139 105 47 61 79 94 116 129 56 49 241 246 152 118 129 181 194 95 113 144 104 66 46 61 64 55 44 38 39 42 45 50 54 51 45 40 35 29 24 20 12 7 360 352 349 346 343 340 340 339 337 336 335 335 335 334 332 329 327 325 322 319 317 315 315 315 315 313 311 310 308 306 303 302
309 322 286 97 168 229 241 283 183 179 238 126 109 59 35 40 40 46 68 91 71 299 253 253 130 103 130 189 186 170 180 157 123 89 51 56 61 54 41 36 42 48 48 48 47 44 37 31 24 15 11 7 1 354 349 346 345 342 340 339 338 338 337 337 336 336 335 333 331 328 326 325 323 322 321 319 318 318 318 317 316 315 313 309 305 301
346 17 268 347 320 287 53 29 113 74 33 81 79 43 34 350 14 30 355 43 105 260 268 257 93 90 110 172 83 345 356 85 106 101 65 54 59 54 38 34 44 50 45 42 39 34 27 20 15 10 7 2 356 351 349 347 344 341 341 339 340 339 337 336 335 333 331 329 327 324 322 322 322 322 321 320 319 319 320 319 318 318 318 315 311 307
351 269 297 337 346 35 54 6 347 9 34 52 61 60 46 340 5 0 312 341 210 243 243 224 44 73 85 63 52 38 42 77 95 95 79 64 62 53 35 30 41 49 42 38 36 29 22 17 14 10 6 1 356 352 349 347 345 343 342 341 342 341 337 335 333 330 328 326 323 321 321 321 319 318 316 316 316 316 317 318 319 321 320 318 315 314
336 302 334 10 342 12 55 84 340 337 10 14 105 110 84 71 44 305 276 284 267 250 199 347 25 91 115 70 55 63 71 90 97 89 70 63 63 51 33 28 38 46 40 35 32 25 19 15 12 7 3 358 353 350 347 346 345 343 341 340 340 340 338 336 335 332 329 326 324 324 322 320 317 316 316 316 316 316 316 317 320 321 317 314 312 311
347 296 326 48 300 352 38 139 161 170 353 320 177 132 127 152 144 250 239 220 254 264 305 335 25 150 155 122 106 96 83 80 86 76 60 58 58 46 30 25 34 42 36 29 23 19 15 11 6 1 357 354 350 347 344 344 345 343 340 340 341 342 341 340 339 337 333 330 329 328 324 322 321 320 319 318 317 317 316 314 312 310 308 308 306 304
114 263 270 302 291 3 41 247 126 88 40 256 157 94 91 180 145 177 194 179 195 284 317 344 63 43 109 113 124 110 84 64 60 54 48 46 42 37 25 20 26 35 30 22 16 13 11 8 2 356 353 351 348 345 343 345 347 344 341 341 342 343 342 341 341 338 335 333 331 329 327 326 325 324 322 320 319 318 315 309 304 300 299 298 298 297
31 280 290 332 318 60 80 260 2 63 202 119 86 170 234 177 116 107 246 42 77 96 281 132 116 88 108 135 147 97 72 50 43 35 32 32 31 31 22 14 18 30 28 18 12 10 9 5 358 354 352 349 347 345 345 347 349 346 341 341 342 342 342 341 340 337 336 334 331 329 329 328 326 325 323 322 321 319 313 306 302 299 296 295 296 296
137 275 299 0 233 337 20 317 0 39 126 81 286 220 229 87 94 98 174 359 33 197 256 112 139 167 170 174 106 48 38 31 27 20 20 22 26 30 17 6 9 25 17 9 8 6 4 360 354 351 350 347 346 346 346 348 348 344 340 340 341 342 341 340 338 337 336 333 330 329 329 328 327 326 326 324 322 318 311 307 307 306 303 301 300 300
126 284 302 294 190 303 343 34 358 344 66 108 197 200 88 96 246 9 96 335 342 257 285 340 129 174 183 180 74 42 34 26 15 13 15 14 24 30 10 357 0 13 3 4 6 2 358 354 350 349 347 345 345 344 345 347 344 340 338 338 340 340 339 338 337 336 334 330 329 330 329 329 329 329 328 325 321 315 311 311 312 312 311 308 306 304
71 178 290 277 226 308 352 48 8 322 340 30 37 356 41 142 172 206 159 171 216 241 270 334 332 205 218 117 102 74 49 33 15 8 7 5 23 25 2 351 0 6 360 3 2 356 352 349 348 349 346 344 344 342 344 344 340 337 337 337 339 339 337 337 337 335 331 329 330 331 330 330 331 330 327 322 318 315 313 313 314 316 315 313 312 311
7 130 259 285 327 352 346 18 41 305 335 355 18 6 342 330 314 315 28 101 133 194 199 208 262 226 68 70 103 91 70 48 22 1 354 359 18 14 357 348 356 359 357 358 356 352 348 346 348 348 342 341 340 340 342 341 336 336 336 337 338 338 338 338 337 333 329 329 331 330 330 330 330 327 322 319 318 315 314 315 316 317 317 316 316 315
349 143 231 288 335 347 279 284 216 180 173 142 90 30 309 295 22 46 316 319 67 139 175 178 253 225 67 55 90 86 81 58 26 1 349 353 1 360 352 342 342 352 354 353 350 348 345 346 348 343 338 338 338 339 341 337 335 335 336 337 337 337 339 338 335 330 328 329 330 328 329 329 326 322 320 320 319 318 317 317 318 318 318 318 317 315
67 101 79 279 279 265 276 301 111 155 117 108 85 48 87 57 80 117 226 276 338 351 177 144 272 242 59 64 74 50 26 32 22 7 355 349 347 351 346 335 335 347 350 350 347 345 345 346 344 338 336 337 338 339 339 335 335 336 336 336 336 337 339 335 330 329 328 329 328 328 329 328 324 323 323 322 321 320 320 320 320 320 319 318 315 311
26 74 13 296 295 310 313 345 34 52 75 75 28 30 55 354 56 143 175 201 256 319 20 61 293 256 180 99 77 45 16 11 11 6 356 344 341 346 342 333 341 347 348 348 346 344 344 342 338 336 336 336 338 338 336 334 335 335 335 335 336 337 336 332 330 331 330 330 330 331 331 329 326 326 325 324 323 323 323 322 321 320 318 316 313 309
340 241 61 356 339 346 343 352 351 347 34 58 7 0 1 6 33 76 161 67 51 299 81 137 258 269 165 126 65 33 14 5 0 358 352 343 341 343 339 339 346 347 347 346 344 343 342 338 336 336 336 336 337 337 335 335 335 335 335 334 336 337 335 334 334 333 331 333 333 333 332 329 327 327 325 325 325 325 324 323 323 321 316 312 310 308
298 204 86 76 286 306 302 304 298 294 350 38 23 358 358 24 27 324 252 57 61 290 41 146 225 270 177 146 21 14 6 357 349 349 348 345 343 340 338 344 346 345 346 345 342 341 338 336 335 336 336 336 338 337 336 335 335 335 334 334 337 337 335 335 335 331 331 334 333 332 330 328 327 327 326 325 326 327 327 325 321 314 309 308 307 307
109 66 52 138 172 207 230 258 267 253 38 43 6 357 360 2 12 69 92 59 180 9 359 217 204 313 246 278 1 360 356 350 344 348 348 344 341 338 338 344 344 344 345 342 340 340 338 335 335 336 337 338 338 336 335 335 334 334 333 334 336 335 335 335 332 330 332 333 332 331 330 328 328 327 326 326 327 328 325 319 314 311 309 309 309 308
90 27 358 125 161 257 243 281 353 65 71 72 40 11 5 357 18 68 82 339 130 89 311 258 343 344 296 353 6 350 348 350 348 348 344 338 334 331 335 343 343 344 345 342 340 340 338 335 335 336 337 337 335 334 334 334 333 333 333 334 335 335 335 333 330 331 333 332 331 331 329 328 327 326 325 326 327 326 321 319 319 319 318 317 315 314
106 50 314 85 26 358 15 42 73 86 78 65 63 36 15 17 36 67 83 144 103 129 244 277 341 322 314 20 7 353 349 345 343 339 334 332 330 328 338 343 343 344 343 341 340 340 337 335 335 336 336 335 334 333 333 333 333 333 334 334 334 334 334 332 330 332 332 331 331 330 329 329 328 326 326 326 326 325 324 324 324 323 321 321 320 319
108 285 283 110 44 20 26 19 62 96 96 64 49 32 23 35 52 67 46 342 13 217 211 6 325 285 197 48 357 353 346 336 334 332 328 329 330 333 343 344 343 343 341 340 341 339 335 333 334 335 334 333 332 332 332 332 333 334 334 333 333 334 333 332 331 332 331 331 330 330 330 330 328 326 327 326 326 325 325 324 323 322 322 321 319 318
42 333 296 97 61 9 21 26 41 85 106 87 51 26 21 37 48 49 22 355 356 293 290 4 319 275 57 25 353 343 337 330 329 329 327 328 331 339 345 344 343 343 341 339 339 336 333 333 334 334 333 331 331 331 331 332 333 334 333 332 332 333 332 331 331 331 331 330 330 331 331 329 327 327 327 326 326 326 325 324 324 322 321 320 318 317
29 3 0 65 63 308 342 82 75 81 92 80 39 12 6 24 40 12 333 315 285 286 316 337 319 289 0 356 339 327 329 330 330 329 326 327 340 347 345 344 344 342 339 337 335 333 332 333 335 334 332 330 330 331 332 332 334 334 333 331 331 331 331 331 332 331 331 331 331 331 330 328 329 328 327 326 326 326 325 324 322 321 320 319 319 318
68 65 27 49 69 286 311 122 157 59 18 337 341 349 326 332 40 353 311 268 243 269 304 304 304 332 342 336 327 323 332 335 332 327 322 326 352 352 346 345 342 338 336 334 332 332 332 333 334 333 330 330 330 330 332 334 334 333 331 330 330 331 332 332 332 332 332 332 332 330 329 329 329 327 327 327 327 325 324 323 321 321 320 318 318 317
63 85 77 53 83 274 299 0 72 42 337 258 218 11 305 234 42 352 314 262 21 37 51 314 325 342 338 333 330 328 330 331 328 323 316 331 0 354 346 343 339 333 332 332 330 330 332 332 332 330 329 329 329 330 332 334 334 331 330 329 330 331 333 332 332 333 333 333 331 328 328 328 328 327 327 327 326 324 323 322 321 321 319 318 318 317
45 54 63 72 81 273 305 28 35 320 245 211 150 25 346 325 40 339 300 182 65 32 27 352 334 332 331 328 326 325 324 326 326 321 311 344 355 348 342 338 334 331 331 330 329 330 331 332 330 328 328 328 329 331 333 333 333 331 329 330 331 332 333 333 333 334 333 332 330 328 328 328 328 328 327 326 325 324 323 322 322 321 320 319 318 318
78 79 69 77 71 336 8 35 329 262 258 229 59 15 3 7 6 346 334 130 45 30 28 345 324 324 326 323 325 329 327 325 326 320 291 336 342 341 338 334 331 330 329 327 327 329 331 331 329 327 327 328 330 333 333 333 333 330 329 331 331 332 333 334 334 334 333 330 329 329 329 329 329 328 326 326 325 324 323 323 322 322 322 321 320 320
79 112 67 52 60 72 73 276 281 340 356 331 0 9 353 330 330 336 321 233 35 37 17 345 325 324 327 326 331 336 332 326 323 284 305 332 336 335 334 332 329 328 326 324 326 329 330 329 327 326 327 329 332 333 333 333 332 331 330 331 332 333 334 335 335 334 332 329 329 329 329 330 329 327 326 326 325 324 324 325 324 324 325 324 322 321
52 70 78 68 30 68 82 327 344 9 327 267 207 336 330 318 303 294 269 243 43 27 2 345 331 328 331 335 338 340 338 330 317 273 335 335 334 331 330 331 331 329 325 325 327 330 330 328 326 326 328 331 333 334 335 334 332 331 332 333 334 335 336 336 335 332 330 329 330 330 330 331 330 328 327 327 326 326 327 327 327 327 327 325 322 322
39 44 76 73 31 51 76 11 295 244 246 227 240 317 329 325 309 303 313 257 4 7 355 347 339 333 335 338 339 342 343 332 312 324 334 333 330 330 331 332 334 330 325 327 330 331 331 328 327 329 332 334 335 336 337 335 333 333 334 335 336 337 337 336 333 330 329 330 331 332 332 332 331 330 329 329 329 330 330 329 329 329 328 327 324 322
21 9 33 50 36 32 78 268 255 242 212 175 299 319 328 329 332 22 346 270 320 353 350 345 339 334 335 338 338 340 340 313 304 314 322 324 324 328 332 334 332 328 326 329 332 332 330 329 330 333 335 336 337 338 338 335 335 336 336 337 337 337 336 333 330 329 330 332 333 333 333 334 333 332 332 332 333 334 333 332 332 331 330 328 326 325
9 354 27 60 43 358 40 250 284 277 191 327 325 325 332 337 359 92 268 283 331 342 340 340 335 328 330 334 332 323 310 306 304 308 315 319 322 328 334 333 328 326 328 331 334 332 331 331 333 335 337 337 339 339 338 336 335 336 337 338 338 337 335 331 330 331 333 334 334 334 335 335 334 334 335 337 338 337 336 335 334 332 331 329 328 328
6 343 356 54 30 350 99 190 299 288 192 341 330 331 355 3 324 268 305 320 332 331 328 330 328 322 325 328 324 315 312 313 314 313 316 321 325 330 334 331 328 330 333 335 335 333 332 333 335 336 338 340 341 340 338 337 336 336 338 339 338 336 334 332 333 334 336 336 336 336 336 335 335 336 339 341 343 340 337 337 336 333 332 331 331 331
102 337 321 303 265 348 18 2 319 281 302 353 343 343 35 49 280 302 318 319 321 321 319 322 325 325 326 325 321 319 318 319 320 320 321 324 328 332 332 331 332 334 336 337 335 334 334 334 335 337 339 342 343 340 339 338 337 337 339 338 337 335 334 334 335 336 337 337 337 337 337 337 337 339 343 346 346 342 338 338 337 335 335 335 334 334
139 134 279 272 196 94 36 310 235 233 344 4 7 358 1 299 295 309 313 310 313 318 321 326 329 328 327 325 323 322 321 322 323 323 325 328 332 333 332 333 335 336 337 337 335 335 335 335 336 337 339 343 343 341 341 341 339 338 338 337 337 336 334 335 337 338 338 338 338 338 338 338 339 343 347 348 346 342 339 339 338 338 338 338 337 336
167 153 223 242 228 207 234 245 259 14 7 4 7 338 322 319 316 317 315 312 315 320 328 332 329 326 328 327 324 324 324 325 325 327 329 331 333 334 334 335 338 337 336 335 335 335 336 336 337 338 340 342 344 342 342 344 342 339 337 337 337 336 335 336 338 339 339 339 339 339 339 340 341 345 349 349 346 343 341 340 340 339 340 340 340 339
91 21 1 212 290 295 271 263 296 345 351 349 335 338 347 343 335 329 325 321 320 324 331 332 328 328 331 330 328 327 327 327 327 329 331 332 333 334 335 337 338 337 336 336 336 336 336 336 338 339 340 342 343 343 344 345 344 340 337 337 338 337 337 338 339 340 340 340 340 340 341 341 344 347 349 349 348 345 344 342 341 341 341 342 342 340
27 15 3 199 334 323 295 309 356 339 334 329 312 330 340 338 332 329 324 320 322 327 331 332 331 331 332 332 330 328 327 328 329 330 332 333 334 335 337 338 337 336 336 336 336 336 336 337 338 339 340 341 342 344 345 346 345 342 339 339 339 338 338 340 341 340 341 341 341 341 343 344 346 348 348 348 348 347 346 345 344 343 343 342 341 341
335 354 339 260 288 280 269 297 329 326 320 314 313 328 330 327 324 322 319 318 323 329 331 332 332 331 332 333 332 330 328 329 331 330 332 333 334 336 337 336 335 335 336 336 336 336 338 338 339 339 340 340 341 343 345 347 346 343 341 341 340 339 340 341 342 341 342 342 342 343 344 346 348 347 347 347 347 347 347 347 346 344 342 341 340 337
295 323 309 248 296 283 276 308 333 330 316 288 317 323 322 320 319 318 316 320 327 331 331 332 333 333 334 334 333 332 329 329 331 331 332 333 334 336 337 335 334 335 336 336 336 336 337 338 338 338 338 339 340 342 345 347 346 344 343 343 342 341 342 342 342 342 343 344 344 344 345 347 348 348 347 346 347 347 347 347 346 342 340 341 341 337
300 305 212 30 330 292 275 326 343 333 292 291 313 319 318 317 316 315 319 326 331 332 332 333 334 335 335 334 333 332 329 329 331 333 332 334 336 337 336 334 333 334 335 335 335 335 336 337 337 337 337 338 340 343 346 347 346 345 345 345 344 344 344 344 342 343 344 345 345 346 347 347 348 348 348 347 347 347 347 348 348 347 344 342 343 345
186 210 197 222 269 271 288 311 321 308 290 301 314 317 313 311 311 316 324 330 332 333 334 334 334 333 334 335 336 333 330 330 334 335 334 334 336 336 335 334 334 335 335 335 335 335 336 337 337 337 337 338 340 343 346 347 347 346 346 346 346 345 346 345 344 344 345 346 346 347 348 348 348 348 348 348 348 348 347 347 349 353 354 351 352 356
Height
1511 1511 1511 1509 1507 1507 1508 1510 1510 1512 1514 1515 1517 1518 1519 1519 1516 1514 1514 1517 1517 1516 1525 1533 1534 1537 1536 1535 1534 1530 1527 1526 1527 1528 1528 1529 1529 1529 1529 1529 1529 1530 1532 1534 1533 1533 1533 1533 1533 1533 1533 1532 1531 1531 1531 1530 1530 1530 1529 1529 1528 1528 1527 1526 1525 1525 1524 1523 1522 1522 1521 1520 1519 1518 1517 1516 1515 1514 1512 1511 1510 1508 1507 1505 1504 1503
1511 1511 1508 1507 1508 1509 1510 1512 1512 1514 1515 1516 1517 1517 1519 1519 1516 1515 1516 1518 1516 1517 1529 1536 1534 1540 1541 1538 1537 1533 1530 1532 1533 1532 1532 1532 1532 1532 1532 1532 1533 1533 1535 1535 1534 1534 1534 1534 1534 1533 1532 1531 1532 1532 1532 1532 1531 1531 1530 1529 1529 1528 1527 1526 1525 1524 1523 1522 1521 1520 1519 1518 1517 1516 1515 1514 1513 1512 1510 1509 1508 1506 1505 1503 1502 1500
1512 1509 1507 1509 1511 1511 1512 1514 1513 1513 1515 1516 1518 1517 1517 1517 1516 1516 1518 1519 1517 1517 1528 1535 1535 1542 1543 1540 1539 1536 1535 1537 1536 1535 1535 1535 1534 1534 1535 1535 1536 1536 1537 1536 1536 1536 1535 1535 1534 1532 1532 1531 1533 1534 1533 1533 1532 1531 1531 1530 1529 1528 1527 1526 1525 1524 1523 1522 1521 1520 1518 1517 1515 1514 1513 1512 1511 1509 1508 1507 1506 1504 1503 1501 1499 1498
1511 1508 1510 1512 1511 1510 1511 1513 1513 1513 1514 1515 1517 1516 1514 1516 1515 1513 1515 1519 1519 1519 1526 1532 1536 1543 1544 1542 1541 1540 1540 1540 1539 1538 1537 1537 1537 1537 1538 1538 1539 1538 1538 1538 1537 1537 1536 1535 1534 1532 1532 1533 1534 1534 1533 1533 1532 1531 1530 1529 1528 1527 1526 1525 1524 1523 1522 1521 1520 1519 1518 1516 1514 1512 1511 1510 1509 1508 1506 1505 1504 1502 1501 1499 1497 1495
1510 1509 1512 1512 1510 1510 1510 1512 1513 1512 1513 1513 1515 1513 1511 1513 1514 1513 1516 1518 1520 1523 1525 1526 1532 1543 1546 1545 1545 1544 1543 1542 1541 1541 1539 1540 1540 1540 1541 1541 1541 1540 1540 1539 1538 1537 1536 1535 1534 1534 1533 1533 1533 1533 1532 1532 1531 1530 1530 1529 1528 1527 1526 1525 1523 1522 1521 1519 1518 1517 1515 1514 1512 1510 1509 1507 1505 1504 1503 1501 1501 1500 1498 1496 1494 1493
1510 1511 1512 1511 1510 1511 1510 1511 1511 1511 1512 1511 1511 1512 1511 1512 1513 1516 1517 1516 1517 1520 1522 1519 1522 1540 1550 1547 1548 1548 1544 1544 1544 1543 1542 1543 1543 1542 1542 1542 1542 1542 1541 1540 1539 1538 1538 1537 1536 1535 1534 1533 1533 1533 1533 1533 1532 1531 1530 1529 1528 1527 1526 1524 1523 1521 1520 1518 1516 1514 1512 1510 1508 1506 1505 1504 1502 1500 1499 1498 1496 1496 1495 1494 1491 1490
1511 1512 1512 1511 1510 1511 1510 1510 1511 1512 1513 1510 1511 1514 1514 1514 1515 1516 1516 1515 1514 1514 1520 1519 1514 1533 1552 1549 1549 1550 1546 1546 1545 1544 1545 1545 1546 1545 1544 1545 1544 1543 1542 1541 1541 1540 1539 1538 1537 1536 1535 1535 1534 1534 1534 1533 1532 1531 1529 1528 1527 1526 1525 1523 1522 1520 1518 1517 1515 1513 1511 1509 1507 1504 1503 1502 1500 1498 1496 1494 1493 1491 1491 1490 1488 1486
1512 1511 1512 1512 1510 1511 1510 1508 1511 1513 1511 1510 1514 1516 1515 1515 1515 1515 1515 1514 1515 1514 1517 1520 1513 1527 1550 1550 1549 1550 1547 1548 1547 1547 1548 1548 1548 1547 1546 1547 1545 1544 1544 1542 1542 1541 1540 1539 1538 1537 1537 1536 1536 1535 1534 1532 1531 1530 1529 1528 1526 1525 1523 1522 1520 1518 1516 1514 1513 1511 1509 1507 1506 1503 1500 1498 1496 1494 1492 1490 1489 1487 1486 1485 1484 1482
1513 1511 1510 1511 1510 1511 1510 1510 1513 1513 1511 1511 1516 1517 1515 1516 1515 1516 1517 1515 1520 1518 1513 1518 1515 1522 1546 1550 1548 1550 1548 1549 1549 1550 1551 1550 1550 1549 1548 1548 1547 1546 1545 1544 1543 1542 1541 1540 1539 1539 1538 1537 1536 1535 1534 1532 1531 1530 1528 1527 1525 1523 1521 1520 1518 1516 1514 1512 1510 1508 1506 1504 1502 1500 1497 1494 1492 1490 1488 1486 1484 1483 1481 1480 1479 1478
1512 1512 1512 1512 1511 1511 1511 1513 1515 1514 1512 1513 1517 1518 1517 1519 1518 1518 1518 1516 1521 1518 1508 1513 1514 1521 1546 1551 1546 1549 1549 1549 1551 1552 1553 1552 1551 1551 1550 1549 1548 1547 1546 1544 1544 1543 1542 1541 1540 1540 1538 1537 1536 1535 1533 1532 1530 1528 1526 1525 1523 1521 1519 1517 1516 1513 1511 1510 1507 1505 1503 1500 1498 1495 1493 1490 1488 1486 1484 1481 1479 1478 1477 1475 1474 1473
1513 1513 1513 1514 1512 1513 1513 1514 1515 1514 1514 1514 1515 1515 1514 1518 1519 1519 1521 1520 1518 1513 1509 1515 1514 1517 1538 1547 1545 1548 1548 1548 1551 1554 1554 1553 1553 1552 1551 1550 1549 1548 1547 1545 1544 1543 1542 1541 1540 1539 1538 1537 1535 1534 1532 1530 1529 1527 1525 1523 1522 1520 1518 1515 1513 1511 1509 1507 1505 1503 1500 1497 1495 1492 1489 1486 1484 1482 1480 1478 1476 1474 1472 1471 1469 1468
1514 1512 1513 1514 1513 1514 1514 1513 1515 1515 1515 1514 1513 1512 1511 1513 1516 1516 1519 1519 1512 1507 1512 1521 1519 1516 1531 1545 1549 1550 1550 1549 1552 1555 1556 1554 1554 1553 1552 1551 1550 1549 1547 1546 1544 1543 1542 1540 1539 1538 1537 1536 1534 1532 1531 1529 1527 1526 1524 1522 1520 1518 1516 1514 1512 1509 1507 1505 1502 1500 1498 1495 1492 1490 1487 1484 1481 1479 1477 1475 1473 1471 1469 1467 1465 1463
1511 1512 1514 1514 1514 1515 1513 1511 1512 1514 1514 1513 1512 1513 1510 1511 1512 1508 1511 1517 1512 1507 1516 1524 1520 1523 1541 1553 1554 1553 1552 1552 1554 1555 1556 1555 1554 1554 1553 1552 1551 1549 1548 1546 1544 1543 1541 1540 1539 1538 1536 1535 1533 1531 1530 1529 1527 1525 1523 1521 1519 1516 1514 1512 1510 1507 1505 1502 1499 1497 1495 1492 1490 1487 1484 1481 1479 1477 1475 1472 1469 1467 1465 1463 1461 1459
1510 1511 1514 1513 1513 1515 1514 1511 1510 1511 1513 1512 1511 1512 1510 1511 1514 1510 1513 1520 1515 1509 1518 1524 1520 1529 1549 1556 1555 1555 1554 1554 1555 1555 1555 1555 1554 1554 1554 1553 1551 1550 1548 1546 1544 1543 1542 1541 1539 1538 1536 1535 1533 1532 1531 1529 1527 1524 1522 1520 1517 1515 1512 1510 1507 1504 1502 1499 1496 1494 1492 1489 1486 1483 1481 1478 1476 1473 1471 1469 1466 1464 1463 1460 1457 1455
1515 1510 1511 1513 1513 1514 1515 1514 1513 1513 1513 1514 1516 1515 1510 1511 1512 1512 1511 1511 1511 1512 1517 1521 1522 1533 1549 1555 1556 1556 1555 1555 1555 1555 1555 1554 1554 1554 1553 1552 1551 1549 1547 1545 1544 1543 1543 1542 1540 1539 1537 1535 1534 1532 1530 1528 1525 1523 1520 1518 1515 1512 1509 1507 1504 1501 1498 1496 1493 1491 1488 1486 1483 1480 1478 1475 1473 1470 1468 1465 1463 1460 1458 1456 1453 1450
1522 1513 1513 1516 1515 1515 1515 1515 1517 1515 1512 1516 1520 1515 1512 1512 1511 1516 1521 1521 1520 1518 1518 1526 1536 1544 1552 1555 1556 1555 1555 1556 1555 1555 1555 1554 1554 1553 1551 1550 1549 1548 1547 1546 1545 1545 1544 1542 1541 1539 1537 1536 1534 1531 1529 1527 1524 1521 1518 1515 1513 1510 1507 1504 1501 1498 1496 1493 1490 1488 1485 1483 1480 1477 1474 1471 1469 1467 1464 1461 1458 1456 1453 1451 1448 1445
1523 1514 1514 1517 1515 1516 1516 1515 1517 1515 1512 1515 1517 1512 1515 1518 1515 1517 1526 1533 1533 1522 1520 1535 1549 1554 1556 1554 1555 1555 1553 1554 1555 1554 1554 1553 1552 1551 1549 1549 1550 1549 1548 1547 1546 1545 1544 1543 1541 1539 1537 1535 1533 1530 1528 1526 1523 1520 1516 1513 1510 1507 1504 1501 1498 1495 1492 1489 1486 1484 1482 1479 1476 1473 1470 1467 1464 1462 1460 1457 1454 1451 1448 1445 1443 1440
1528 1518 1514 1517 1515 1514 1517 1516 1516 1517 1515 1515 1514 1514 1518 1520 1518 1518 1519 1525 1530 1524 1522 1536 1548 1553 1552 1549 1551 1554 1554 1554 1555 1553 1553 1553 1552 1551 1551 1552 1551 1550 1549 1548 1547 1546 1544 1542 1540 1538 1537 1534 1532 1530 1527 1524 1522 1519 1515 1511 1508 1504 1501 1498 1495 1492 1489 1486 1483 1480 1478 1475 1472 1469 1466 1464 1461 1458 1455 1452 1450 1447 1444 1441 1438 1434
1533 1523 1515 1517 1517 1515 1517 1516 1514 1516 1517 1516 1515 1517 1518 1515 1514 1518 1518 1517 1521 1522 1523 1535 1547 1549 1547 1548 1552 1555 1556 1556 1556 1555 1554 1553 1553 1553 1554 1553 1552 1550 1549 1548 1547 1545 1543 1542 1539 1538 1536 1533 1531 1528 1525 1522 1519 1516 1513 1509 1506 1502 1499 1496 1492 1489 1486 1483 1480 1477 1474 1471 1469 1466 1463 1460 1457 1454 1451 1448 1445 1442 1439 1436 1432 1429
1533 1527 1517 1516 1518 1517 1515 1515 1514 1515 1517 1516 1517 1518 1519 1518 1517 1519 1521 1520 1520 1521 1525 1534 1543 1547 1549 1552 1556 1557 1558 1559 1557 1557 1556 1555 1555 1555 1554 1554 1552 1550 1549 1547 1546 1544 1542 1541 1539 1537 1535 1532 1530 1526 1523 1520 1517 1513 1509 1506 1503 1499 1496 1493 1490 1487 1483 1481 1478 1475 1472 1468 1465 1462 1459 1457 1454 1451 1447 1444 1440 1437 1433 1430 1427 1424
1532 1530 1522 1516 1517 1516 1515 1518 1520 1520 1520 1518 1517 1517 1519 1521 1522 1522 1525 1527 1524 1521 1527 1531 1534 1546 1555 1554 1555 1558 1559 1559 1558 1558 1557 1556 1556 1555 1554 1553 1551 1549 1548 1546 1545 1543 1542 1540 1538 1536 1533 1530 1527 1524 1521 1518 1514 1510 1507 1503 1500 1497 1494 1490 1487 1485 1481 1478 1475 1471 1468 1465 1462 1459 1456 1453 1451 1447 1443 1440 1436 1432 1428 1425 1422 1419
1532 1532 1528 1521 1518 1516 1518 1524 1525 1524 1524 1523 1521 1523 1525 1524 1523 1523 1524 1531 1530 1525 1530 1531 1529 1545 1560 1556 1555 1560 1558 1558 1559 1558 1557 1556 1555 1555 1554 1552 1550 1549 1547 1545 1544 1542 1540 1538 1535 1533 1530 1527 1524 1520 1517 1515 1511 1507 1504 1501 1498 1495 1491 1488 1485 1482 1478 1474 1471 1468 1465 1461 1458 1455 1452 1449 1446 1442 1438 1435 1431 1428 1424 1420 1418 1415
1535 1535 1533 1527 1522 1522 1523 1526 1527 1525 1526 1526 1526 1530 1532 1527 1526 1526 1524 1528 1531 1528 1533 1533 1530 1546 1561 1557 1557 1560 1558 1558 1559 1557 1557 1556 1554 1554 1552 1551 1549 1548 1546 1545 1543 1541 1538 1536 1533 1530 1527 1523 1521 1518 1515 1511 1508 1505 1501 1498 1495 1492 1489 1486 1482 1479 1475 1471 1468 1465 1462 1458 1454 1451 1447 1444 1440 1437 1433 1430 1426 1423 1420 1416 1413 1411
1536 1535 1533 1527 1523 1524 1525 1526 1527 1526 1526 1527 1530 1536 1537 1534 1533 1532 1530 1531 1531 1530 1535 1533 1532 1547 1560 1558 1558 1559 1558 1558 1557 1556 1556 1554 1553 1553 1551 1549 1548 1546 1545 1543 1541 1539 1536 1533 1530 1527 1524 1521 1518 1515 1512 1509 1506 1502 1499 1496 1493 1490 1487 1483 1479 1475 1471 1468 1464 1460 1457 1454 1450 1446 1443 1439 1435 1431 1428 1425 1422 1419 1415 1412 1409 1406
1534 1533 1533 1530 1525 1523 1523 1525 1525 1525 1528 1532 1538 1542 1542 1540 1538 1535 1536 1535 1533 1538 1544 1538 1535 1548 1558 1558 1558 1558 1557 1557 1556 1556 1556 1554 1553 1552 1549 1548 1547 1545 1543 1541 1539 1537 1534 1532 1529 1526 1523 1520 1517 1514 1510 1507 1503 1500 1497 1493 1490 1486 1483 1479 1475 1471 1467 1463 1459 1456 1453 1449 1446 1441 1437 1433 1430 1427 1423 1420 1417 1414 1411 1408 1404 1401
1536 1535 1535 1533 1531 1528 1527 1529 1529 1529 1534 1539 1544 1546 1543 1542 1539 1534 1533 1532 1533 1544 1550 1543 1543 1551 1556 1556 1557 1557 1557 1556 1556 1556 1555 1554 1553 1551 1549 1547 1545 1543 1541 1540 1538 1536 1533 1531 1528 1525 1522 1519 1515 1512 1508 1504 1501 1497 1493 1490 1487 1483 1479 1475 1471 1467 1463 1459 1455 1452 1448 1444 1440 1436 1432 1428 1425 1421 1418 1415 1413 1410 1407 1404 1400 1395
1539 1539 1540 1537 1536 1536 1534 1536 1536 1535 1537 1541 1546 1548 1547 1547 1545 1539 1535 1536 1542 1549 1548 1548 1553 1554 1554 1557 1557 1557 1557 1556 1555 1554 1553 1552 1551 1549 1548 1546 1544 1543 1541 1539 1537 1534 1532 1528 1525 1523 1519 1516 1513 1509 1506 1502 1498 1494 1490 1487 1484 1480 1476 1472 1468 1464 1460 1456 1452 1448 1444 1440 1436 1431 1428 1424 1421 1417 1415 1412 1409 1405 1401 1398 1394 1390
1538 1538 1542 1541 1540 1542 1543 1542 1541 1540 1543 1548 1551 1551 1550 1549 1546 1542 1542 1547 1552 1550 1546 1551 1558 1553 1552 1559 1559 1558 1558 1556 1555 1554 1552 1552 1550 1548 1547 1545 1543 1542 1539 1537 1535 1532 1529 1525 1522 1519 1516 1513 1510 1506 1503 1500 1496 1492 1488 1484 1480 1477 1473 1469 1465 1460 1456 1452 1448 1444 1440 1436 1432 1428 1424 1420 1417 1414 1411 1406 1402 1398 1394 1391 1387 1383
1538 1538 1543 1544 1543 1547 1548 1546 1545 1545 1550 1555 1555 1554 1554 1552 1548 1548 1551 1554 1555 1551 1548 1553 1556 1554 1555 1560 1560 1558 1558 1556 1555 1555 1553 1552 1550 1547 1545 1544 1542 1540 1538 1535 1533 1530 1527 1523 1520 1517 1513 1511 1507 1503 1500 1496 1493 1489 1485 1481 1478 1474 1470 1466 1462 1457 1453 1449 1445 1441 1436 1432 1428 1424 1421 1417 1413 1409 1405 1400 1395 1391 1388 1384 1381 1377
1539 1539 1544 1545 1544 1548 1549 1548 1548 1549 1552 1558 1558 1558 1558 1556 1555 1554 1555 1556 1555 1554 1554 1556 1557 1556 1558 1560 1559 1558 1558 1556 1556 1554 1552 1550 1548 1546 1544 1542 1540 1538 1536 1533 1530 1528 1525 1522 1519 1515 1512 1509 1505 1501 1497 1493 1490 1486 1482 1479 1475 1471 1467 1463 1458 1454 1450 1446 1441 1437 1432 1428 1425 1421 1417 1412 1408 1404 1399 1395 1390 1386 1382 1379 1375 1372
1538 1540 1546 1546 1543 1547 1551 1552 1552 1552 1553 1558 1561 1561 1560 1559 1558 1558 1557 1558 1557 1555 1556 1559 1558 1557 1557 1558 1558 1558 1557 1556 1555 1553 1551 1549 1546 1545 1543 1541 1539 1536 1533 1531 1528 1526 1523 1520 1517 1514 1511 1507 1503 1499 1495 1490 1487 1483 1479 1476 1472 1468 1464 1460 1456 1451 1447 1443 1438 1433 1429 1425 1421 1417 1412 1408 1404 1399 1394 1390 1385 1381 1377 1374 1370 1367
1542 1542 1546 1544 1540 1544 1551 1552 1554 1556 1554 1554 1559 1563 1562 1561 1560 1560 1560 1560 1559 1557 1558 1558 1557 1556 1558 1558 1558 1558 1557 1555 1554 1552 1549 1547 1545 1543 1541 1539 1537 1534 1531 1529 1526 1524 1521 1518 1515 1512 1508 1505 1501 1497 1492 1488 1483 1479 1476 1473 1469 1465 1461 1457 1453 1448 1444 1439 1434 1430 1426 1422 1417 1412 1408 1403 1399 1394 1390 1385 1381 1377 1373 1369 1365 1362
1549 1545 1546 1546 1540 1542 1550 1553 1555 1555 1547 1547 1559 1565 1564 1562 1562 1562 1561 1560 1561 1560 1560 1559 1558 1559 1560 1559 1557 1556 1555 1553 1552 1550 1548 1545 1543 1542 1540 1537 1534 1532 1530 1528 1525 1522 1518 1515 1512 1509 1505 1501 1497 1494 1490 1486 1481 1477 1474 1469 1465 1462 1457 1453 1449 1445 1440 1436 1431 1427 1423 1418 1413 1408 1403 1399 1395 1390 1386 1381 1377 1373 1369 1364 1361 1357
1551 1547 1548 1551 1545 1541 1549 1555 1554 1548 1543 1550 1563 1566 1563 1562 1563 1563 1561 1560 1561 1561 1561 1561 1560 1560 1560 1558 1557 1555 1553 1553 1551 1548 1546 1544 1542 1540 1538 1535 1533 1531 1529 1526 1523 1520 1517 1513 1510 1507 1503 1500 1495 1491 1487 1483 1480 1476 1472 1467 1462 1458 1454 1450 1446 1441 1437 1432 1429 1425 1420 1415 1410 1405 1400 1396 1391 1386 1382 1377 1373 1369 1365 1361 1357 1353
1549 1548 1549 1553 1551 1547 1550 1551 1543 1539 1547 1559 1565 1563 1562 1561 1562 1562 1560 1560 1562 1563 1562 1563 1562 1560 1559 1558 1557 1555 1553 1551 1549 1546 1545 1543 1541 1538 1536 1534 1532 1530 1527 1524 1521 1518 1515 1512 1508 1504 1501 1497 1493 1489 1485 1481 1477 1473 1469 1465 1460 1455 1451 1447 1442 1438 1434 1429 1426 1422 1417 1411 1406 1401 1396 1392 1387 1383 1378 1374 1369 1365 1361 1357 1353 1349
1549 1549 1549 1553 1553 1550 1551 1549 1542 1545 1557 1564 1562 1562 1563 1562 1561 1561 1560 1561 1564 1564 1563 1563 1562 1560 1559 1557 1555 1553 1551 1548 1546 1544 1543 1541 1540 1538 1536 1534 1532 1529 1526 1523 1520 1516 1513 1510 1506 1502 1498 1495 1491 1487 1483 1479 1475 1470 1466 1462 1458 1453 1449 1444 1439 1435 1431 1427 1422 1418 1413 1408 1402 1397 1392 1388 1383 1379 1374 1370 1366 1361 1357 1353 1348 1344
1551 1550 1550 1551 1554 1555 1555 1554 1554 1557 1560 1562 1564 1567 1567 1567 1567 1566 1564 1563 1563 1564 1563 1562 1560 1559 1557 1555 1553 1551 1548 1544 1543 1542 1541 1540 1539 1538 1537 1534 1531 1528 1525 1522 1519 1515 1512 1508 1505 1501 1497 1493 1489 1485 1481 1477 1473 1468 1463 1459 1455 1450 1445 1441 1436 1431 1428 1424 1419 1415 1410 1405 1399 1394 1388 1384 1379 1374 1370 1366 1361 1357 1353 1349 1343 1339
1553 1554 1552 1551 1556 1562 1559 1556 1556 1553 1551 1559 1569 1570 1569 1569 1568 1568 1568 1564 1562 1563 1563 1561 1560 1558 1555 1553 1551 1549 1546 1541 1538 1540 1540 1539 1537 1536 1534 1531 1530 1526 1523 1520 1516 1513 1509 1506 1503 1499 1496 1491 1487 1484 1480 1475 1471 1466 1461 1456 1452 1447 1442 1438 1433 1429 1425 1420 1416 1411 1406 1402 1397 1391 1385 1380 1375 1370 1365 1361 1357 1353 1350 1345 1340 1335
1556 1558 1557 1555 1560 1566 1563 1560 1559 1553 1552 1564 1571 1568 1567 1567 1566 1567 1566 1560 1561 1564 1562 1560 1560 1557 1555 1554 1551 1549 1549 1544 1537 1535 1538 1537 1535 1533 1530 1527 1525 1523 1520 1518 1514 1510 1507 1504 1500 1496 1492 1488 1484 1480 1476 1472 1468 1463 1458 1453 1449 1444 1440 1435 1431 1427 1422 1416 1411 1407 1402 1398 1393 1387 1382 1377 1372 1367 1362 1357 1353 1349 1345 1342 1337 1331
1560 1562 1563 1562 1566 1570 1568 1564 1560 1556 1560 1569 1570 1567 1566 1565 1565 1566 1559 1553 1559 1564 1561 1559 1559 1556 1555 1555 1552 1551 1552 1549 1541 1535 1536 1535 1533 1532 1529 1526 1523 1520 1517 1514 1511 1508 1505 1501 1497 1493 1489 1484 1480 1476 1472 1468 1464 1459 1455 1450 1446 1442 1438 1434 1429 1424 1419 1413 1408 1403 1398 1394 1388 1383 1379 1374 1368 1364 1359 1354 1350 1345 1341 1337 1333 1328
1570 1572 1572 1571 1570 1571 1571 1567 1560 1558 1565 1570 1568 1567 1566 1563 1563 1563 1557 1556 1561 1562 1559 1559 1559 1556 1555 1554 1553 1551 1551 1549 1545 1539 1536 1534 1531 1529 1528 1525 1522 1519 1515 1512 1509 1505 1502 1498 1495 1491 1487 1482 1478 1473 1469 1464 1460 1456 1452 1448 1443 1440 1436 1431 1426 1421 1416 1410 1405 1399 1394 1390 1385 1380 1375 1371 1366 1361 1356 1352 1347 1342 1338 1333 1329 1325
1576 1577 1576 1576 1575 1576 1579 1575 1562 1558 1566 1571 1568 1566 1566 1564 1564 1562 1561 1562 1562 1560 1559 1559 1557 1556 1555 1553 1552 1551 1547 1545 1543 1539 1535 1532 1529 1526 1524 1522 1519 1516 1513 1510 1506 1503 1499 1494 1491 1488 1484 1481 1477 1472 1467 1463 1458 1453 1449 1445 1441 1437 1432 1428 1422 1417 1412 1406 1401 1396 1391 1386 1381 1377 1372 1367 1363 1358 1353 1349 1345 1340 1336 1331 1326 1322
1581 1578 1575 1577 1578 1579 1580 1573 1560 1557 1566 1571 1568 1566 1567 1568 1567 1565 1564 1564 1562 1560 1560 1558 1556 1556 1554 1551 1550 1548 1544 1542 1539 1536 1533 1530 1527 1525 1522 1519 1516 1512 1509 1506 1503 1499 1495 1491 1487 1484 1481 1478 1474 1470 1466 1461 1456 1452 1448 1443 1439 1434 1429 1424 1419 1414 1408 1403 1398 1393 1388 1383 1378 1373 1369 1364 1360 1356 1351 1346 1342 1338 1333 1329 1324 1319
1583 1581 1578 1578 1580 1579 1575 1568 1563 1565 1569 1570 1568 1568 1569 1568 1568 1566 1564 1563 1561 1560 1558 1556 1555 1555 1552 1550 1547 1544 1541 1539 1536 1533 1531 1527 1525 1522 1519 1516 1513 1509 1506 1503 1500 1496 1493 1489 1485 1482 1478 1476 1472 1468 1464 1459 1454 1450 1446 1441 1437 1432 1426 1421 1416 1411 1405 1400 1395 1390 1385 1380 1375 1370 1366 1362 1358 1354 1349 1344 1340 1335 1331 1327 1322 1318
1581 1582 1581 1580 1580 1579 1574 1569 1569 1570 1570 1569 1568 1569 1568 1567 1566 1566 1564 1562 1560 1559 1557 1556 1554 1552 1550 1548 1545 1541 1539 1537 1534 1531 1528 1525 1522 1520 1516 1514 1511 1507 1505 1502 1498 1495 1491 1487 1483 1479 1476 1473 1470 1466 1462 1458 1453 1448 1443 1439 1435 1429 1423 1418 1413 1408 1402 1397 1392 1387 1382 1377 1372 1368 1364 1360 1356 1352 1347 1343 1338 1333 1328 1324 1320 1316
1582 1582 1582 1581 1580 1577 1572 1570 1571 1571 1569 1569 1568 1567 1567 1566 1565 1563 1562 1561 1559 1557 1556 1555 1552 1550 1548 1545 1542 1539 1537 1534 1531 1529 1526 1523 1521 1517 1514 1511 1509 1506 1503 1500 1496 1492 1488 1485 1481 1477 1473 1470 1467 1464 1460 1456 1452 1447 1442 1437 1432 1427 1421 1416 1410 1405 1400 1394 1389 1384 1379 1374 1369 1365 1362 1359 1355 1351 1346 1342 1337 1332 1327 1323 1318 1314
1582 1581 1581 1581 1581 1578 1572 1569 1571 1570 1569 1569 1568 1566 1566 1564 1563 1562 1561 1559 1558 1556 1555 1553 1551 1548 1546 1543 1540 1537 1535 1532 1530 1527 1524 1521 1518 1515 1512 1509 1506 1504 1501 1498 1494 1490 1486 1482 1478 1474 1470 1467 1464 1461 1457 1453 1450 1446 1440 1435 1430 1424 1419 1413 1408 1402 1397 1392 1387 1382 1377 1372 1367 1362 1359 1356 1353 1349 1344 1340 1336 1331 1326 1322 1318 1313
1582 1581 1581 1582 1582 1579 1572 1570 1571 1570 1568 1567 1566 1565 1565 1563 1562 1561 1559 1557 1556 1555 1553 1551 1549 1546 1543 1541 1539 1536 1534 1532 1529 1525 1522 1520 1517 1514 1511 1508 1505 1502 1499 1496 1492 1488 1484 1481 1476 1472 1469 1465 1461 1458 1454 1450 1447 1443 1438 1433 1428 1422 1416 1411 1406 1400 1395 1390 1385 1380 1375 1370 1366 1361 1357 1354 1351 1348 1343 1338 1333 1329 1326 1322 1319 1315
1582 1581 1581 1582 1581 1577 1572 1570 1570 1569 1566 1566 1566 1565 1563 1562 1560 1559 1558 1556 1555 1553 1551 1549 1547 1545 1542 1539 1537 1535 1533 1530 1528 1525 1522 1519 1516 1513 1510 1506 1504 1500 1497 1494 1490 1487 1483 1479 1475 1471 1467 1463 1459 1456 1452 1448 1444 1440 1436 1430 1425 1420 1414 1408 1403 1399 1393 1388 1383 1378 1373 1369 1365 1361 1356 1352 1348 1345 1343 1339 1334 1329 1325 1322 1319 1316
1581 1581 1582 1582 1581 1577 1573 1571 1571 1570 1567 1566 1565 1563 1561 1560 1559 1558 1556 1555 1553 1551 1549 1547 1544 1543 1541 1539 1536 1534 1531 1529 1527 1524 1521 1518 1515 1512 1508 1505 1502 1498 1495 1492 1488 1485 1482 1478 1474 1470 1465 1461 1458 1454 1450 1446 1442 1438 1434 1429 1424 1418 1413 1407 1401 1396 1391 1386 1381 1376 1372 1367 1363 1359 1355 1351 1346 1341 1338 1336 1334 1330 1326 1321 1317 1314
1580 1580 1581 1581 1580 1576 1572 1571 1572 1571 1568 1565 1564 1562 1560 1558 1557 1556 1554 1553 1552 1550 1547 1545 1542 1540 1539 1537 1535 1533 1530 1528 1525 1522 1519 1517 1514 1511 1507 1504 1500 1496 1493 1490 1486 1482 1479 1475 1472 1468 1464 1459 1456 1452 1448 1444 1440 1436 1431 1427 1422 1417 1412 1407 1401 1394 1389 1385 1380 1375 1371 1367 1362 1358 1354 1350 1346 1340 1335 1330 1327 1326 1324 1321 1315 1310